Dallas Paulding County Region, GA

6:40 PM EST on November 14, 2019 (GMT -0500)
Dallas Paulding County Region

Weather History for KPUJ - June, 2019

Change the Weather History Date:

Thursday, June 6, 2019

  Actual Average (WUND) Record (WUND)
Temperature  
Mean Temperature 70 °F -  
Max Temperature 73 °F - - (-1)
Min Temperature 66 °F - - (-1)
Cooling Degree Days 4    
Growing Degree Days 20 (Base 50)    
Moisture  
Dew Point 68 °F    
Average Humidity 92    
Maximum Humidity 100    
Minimum Humidity 73    
Precipitation  
Precipitation 0.00 in - - ()
Sea Level Pressure  
Sea Level Pressure 29.94 in    
Wind  
Wind Speed 2 mph ()    
Max Wind Speed 7 mph    
Max Gust Speed -    
Visibility 9.6 miles    
Events Rain    
Averages and records for this station are not official NWS values.
T = Trace of Precipitation, MM = Missing Value Source: Averaged Metar Reports

Daily Weather History Graph

Daily Weather History Graph

Search for Another Location

Airport or City:

Astronomy

Jun. 06, 2019 Rise Set
Actual Time 6:28 AM EDT 8:48 PM EDT
Civil Twilight 5:59 AM EDT 9:17 PM EDT
Nautical Twilight 5:24 AM EDT 9:52 PM EDT
Astronomical Twilight 4:45 AM EDT 10:31 PM EDT
Moon 9:35 AM EDT (6/6) No Moon Set
Length of Visible Light 15h 17m
Length of Day
14h 19m
Waxing Crescent, 13% of the Moon is Illuminated
Jun 6
Waxing Crescent
Jun 10
First Quarter
Jun 17
Full
Jun 25
Last Quarter
Jul 2
New

Hourly Weather History & Observations

Time (EDT) Temp. Dew Point Humidity Pressure Visibility Wind Dir Wind Speed Gust Speed Precip Events Conditions
12:15 AM 71.6 °F 71.6 °F 100% 29.98 in 10.0 mi SSW 3.5 mph - N/A   Scattered Clouds
12:35 AM 71.6 °F 69.8 °F 94% 29.98 in 10.0 mi Calm Calm - N/A   Mostly Cloudy
12:55 AM 73.4 °F 68.0 °F 83% 29.98 in 10.0 mi Calm Calm - N/A   Mostly Cloudy
1:15 AM 71.6 °F 68.0 °F 88% 29.98 in 10.0 mi WSW 3.5 mph - N/A   Mostly Cloudy
1:35 AM 71.6 °F 68.0 °F 88% 29.98 in 10.0 mi Calm Calm - N/A   Overcast
1:55 AM 71.6 °F 68.0 °F 88% 29.98 in 10.0 mi Calm Calm - N/A   Overcast
2:15 AM 71.6 °F 68.0 °F 88% 29.97 in 10.0 mi Calm Calm - N/A   Overcast
2:35 AM 71.6 °F 69.8 °F 94% 29.97 in 10.0 mi Calm Calm - N/A   Overcast
2:55 AM 71.6 °F 68.0 °F 88% 29.97 in 10.0 mi Calm Calm - N/A   Overcast
3:15 AM 71.6 °F 68.0 °F 88% 29.97 in 10.0 mi Calm Calm - N/A Rain Rain
3:35 AM 69.8 °F 68.0 °F 94% 29.96 in 10.0 mi Calm Calm - N/A   Light Drizzle
3:55 AM 69.8 °F 68.0 °F 94% 29.95 in 10.0 mi Calm Calm - N/A Rain Light Rain
4:15 AM 69.8 °F 69.8 °F 100% 29.96 in 10.0 mi Calm Calm - N/A   Light Drizzle
4:35 AM 69.8 °F 68.0 °F 94% 29.96 in 10.0 mi Calm Calm - N/A   Overcast
4:55 AM 69.8 °F 68.0 °F 94% 29.96 in 10.0 mi WSW 6.9 mph - N/A   Drizzle
5:15 AM 68.0 °F 68.0 °F 100% 29.96 in 10.0 mi WSW 4.6 mph - N/A   Light Drizzle
5:35 AM 68.0 °F 68.0 °F 100% 29.95 in 10.0 mi Calm Calm - N/A   Overcast
5:55 AM 68.0 °F 68.0 °F 100% 29.95 in 10.0 mi Calm Calm - N/A   Overcast
6:15 AM 66.2 °F 66.2 °F 100% 29.95 in 10.0 mi Calm Calm - N/A   Overcast
6:35 AM 66.2 °F 66.2 °F 100% 29.95 in 10.0 mi Calm Calm - N/A   Light Drizzle
6:55 AM 68.0 °F 64.4 °F 88% 29.96 in 10.0 mi West 3.5 mph - N/A   Overcast
7:15 AM 68.0 °F 64.4 °F 88% 29.96 in 10.0 mi WSW 4.6 mph - N/A   Light Drizzle
7:35 AM 68.0 °F 66.2 °F 94% 29.97 in 10.0 mi Calm Calm - N/A Rain Rain
7:55 AM 68.0 °F 68.0 °F 100% 29.97 in 10.0 mi WSW 3.5 mph - N/A   Drizzle
8:15 AM 68.0 °F 68.0 °F 100% 29.97 in 10.0 mi WSW 5.8 mph - N/A   Light Drizzle
8:35 AM 68.0 °F 68.0 °F 100% 29.97 in 10.0 mi SW 3.5 mph - N/A   Light Drizzle
8:55 AM 68.0 °F 68.0 °F 100% 29.98 in 10.0 mi WSW 4.6 mph - N/A Rain Light Rain
9:15 AM 68.0 °F 68.0 °F 100% 29.98 in 10.0 mi WSW 3.5 mph - N/A   Drizzle
9:35 AM 68.0 °F 68.0 °F 100% 29.98 in 10.0 mi WSW 4.6 mph - N/A   Overcast
9:55 AM 69.8 °F 69.8 °F 100% 29.98 in 10.0 mi Calm Calm - N/A   Light Drizzle
10:15 AM 69.8 °F 68.0 °F 94% 29.98 in 10.0 mi Calm Calm - N/A   Overcast
10:35 AM 69.8 °F 68.0 °F 94% 29.98 in 10.0 mi SW 3.5 mph - N/A   Overcast
10:55 AM 69.8 °F 68.0 °F 94% 29.98 in 10.0 mi Calm Calm - N/A   Overcast
11:15 AM 71.6 °F 68.0 °F 88% 29.98 in 10.0 mi SSW 3.5 mph - N/A   Overcast
11:35 AM 73.4 °F 68.0 °F 83% 29.98 in 10.0 mi SSW 3.5 mph - N/A   Overcast
11:55 AM 71.6 °F 64.4 °F 78% 29.98 in 10.0 mi Calm Calm - N/A   Overcast
12:15 PM 71.6 °F 64.4 °F 78% 29.97 in 10.0 mi WSW 3.5 mph - N/A   Overcast
12:35 PM 73.4 °F 64.4 °F 73% 29.97 in 10.0 mi Calm Calm - N/A   Overcast
12:55 PM 73.4 °F 64.4 °F 73% 29.97 in 10.0 mi Calm Calm - N/A   Overcast
1:15 PM 73.4 °F 64.4 °F 73% 29.97 in 10.0 mi Calm Calm - N/A   Overcast
1:35 PM 71.6 °F 64.4 °F 78% 29.96 in 10.0 mi Calm Calm - N/A   Overcast
1:55 PM 73.4 °F 64.4 °F 73% 29.96 in 10.0 mi Calm Calm - N/A   Overcast
2:15 PM 71.6 °F 66.2 °F 83% 29.96 in 10.0 mi South 3.5 mph - N/A   Drizzle
2:35 PM 71.6 °F 68.0 °F 88% 29.96 in 10.0 mi Calm Calm - N/A Rain Light Rain
2:55 PM 71.6 °F 69.8 °F 94% 29.96 in 10.0 mi Calm Calm - N/A   Light Drizzle
3:15 PM 71.6 °F 68.0 °F 88% 29.95 in 10.0 mi SSE 3.5 mph - N/A   Overcast
3:35 PM 71.6 °F 64.4 °F 78% 29.95 in 10.0 mi South 4.6 mph - N/A   Overcast
3:55 PM 71.6 °F 64.4 °F 78% 29.94 in 7.0 mi South 4.6 mph - N/A   Overcast
4:15 PM 73.4 °F 66.2 °F 78% 29.93 in 10.0 mi SSE 4.6 mph - N/A   Overcast
4:35 PM 71.6 °F 66.2 °F 83% 29.93 in 10.0 mi South 4.6 mph - N/A   Overcast
4:55 PM 71.6 °F 66.2 °F 83% 29.93 in 10.0 mi Calm Calm - N/A   Overcast
5:15 PM 71.6 °F 64.4 °F 78% 29.93 in 10.0 mi SW 3.5 mph - N/A   Overcast
5:35 PM 71.6 °F 68.0 °F 88% 29.92 in 10.0 mi SW 3.5 mph - N/A Rain Light Rain
5:55 PM 71.6 °F 68.0 °F 88% 29.91 in 10.0 mi South 3.5 mph - N/A   Light Drizzle
6:15 PM 71.6 °F 71.6 °F 100% 29.91 in 5.0 mi Calm Calm - N/A Rain Rain
6:35 PM 69.8 °F 69.8 °F 100% 29.90 in 5.0 mi Calm Calm - N/A   Drizzle
6:55 PM 69.8 °F 69.8 °F 100% 29.90 in 7.0 mi Calm Calm - N/A   Light Drizzle
7:15 PM 69.8 °F 69.8 °F 100% 29.89 in 10.0 mi Calm Calm - N/A   Overcast
7:35 PM 69.8 °F 69.8 °F 100% 29.89 in 10.0 mi South 3.5 mph - N/A   Overcast
7:55 PM 69.8 °F 69.8 °F 100% 29.89 in 10.0 mi Calm Calm - N/A   Overcast
8:15 PM 69.8 °F 69.8 °F 100% 29.89 in 10.0 mi Calm Calm - N/A   Overcast
8:35 PM 69.8 °F 69.8 °F 100% 29.89 in 10.0 mi Calm Calm - N/A   Overcast
8:55 PM 69.8 °F 69.8 °F 100% 29.88 in 10.0 mi Calm Calm - N/A   Overcast
9:15 PM 69.8 °F 69.8 °F 100% 29.88 in 10.0 mi Calm Calm - N/A   Overcast
9:35 PM 69.8 °F 69.8 °F 100% 29.88 in 7.0 mi Calm Calm - N/A   Mostly Cloudy
9:55 PM 69.8 °F 69.8 °F 100% 29.88 in 7.0 mi Calm Calm - N/A   Mostly Cloudy
10:15 PM 68.0 °F 68.0 °F 100% 29.88 in 7.0 mi Calm Calm - N/A   Overcast
10:35 PM 68.0 °F 68.0 °F 100% 29.88 in 7.0 mi SE 3.5 mph - N/A   Overcast
10:55 PM 68.0 °F 68.0 °F 100% 29.88 in 10.0 mi SE 3.5 mph - N/A   Overcast
11:15 PM 68.0 °F 68.0 °F 100% 29.89 in 7.0 mi SSE 4.6 mph - N/A   Overcast
11:35 PM 68.0 °F 68.0 °F 100% 29.89 in 10.0 mi SSE 4.6 mph - N/A   Overcast
11:55 PM 68.0 °F 68.0 °F 100% 29.89 in 10.0 mi SE 3.5 mph - N/A   Overcast